Regional Weather Roundup
Issued by NWS Upton, NY

Current Version | Previous Version | Text Only | Print | Product List | Glossary On
Versions: 1 2 3 4 5 6 7 8 9 10 11 12 13 14 15 16 17 18 19 20 21 22 23 24 25 26 27
000 ASUS41 KOKX 220708 RWROKX REGIONAL WEATHER ROUNDUP NATIONAL WEATHER SERVICE NEW YORK NY 300 AM EDT SUN OCT 22 2017 NOTE: "FAIR" INDICATES FEW OR NO CLOUDS BELOW 12,000 FEET WITH NO SIGNIFICANT WEATHER AND/OR OBSTRUCTIONS TO VISIBILITY. NYZ071-072-176-178-NJZ106-104-220800- NEW YORK CITY METRO AREA CITY SKY/WX TMP DP RH WIND PRES REMARKS Central Park CLEAR 62 44 51 NW3 30.37F Bronx Bot Gard N/A 57 46 67 CALM 30.35F LaGuardia APRT PTCLDY 63 47 55 CALM 30.34F Kennedy INTL PTCLDY 55 50 83 SW6 30.36F Breezy Point N/A 59 N/A N/A W6 N/A Newark/Liberty PTCLDY 57 46 66 SW5 30.35F Teterboro CLEAR 53 47 79 CALM 30.34F $$ NYZ177-179-078>081-220800- LONG ISLAND NEW YORK CITY SKY/WX TMP DP RH WIND PRES REMARKS Jones Beach N/A 61 N/A N/A W3 N/A Matinecock PT N/A 61 N/A N/A SW1 N/A Farmingdale CLEAR 51 48 89 CALM 30.35F MacArthur/ISP CLEAR 50 50 100 CALM 30.35S Shirley PTCLDY 53 51 93 CALM 30.36S Mt Sinai Harb N/A N/A N/A N/A MISG N/A Westhampton FOG 41 40 96 CALM 30.37S VSB 1 East Hampton FAIR 45 44 96 CALM 30.35S Montauk N/A 56 55 97 CALM 30.36F $$ NYZ052-065-067-220800- HUDSON VALLEY CITY SKY/WX TMP DP RH WIND PRES REMARKS White Plains CLEAR 50 46 86 NW7 30.34F Larchmont Harb N/A 55 N/A N/A MISG N/A Croton On Huds N/A 50 N/A N/A NE6 N/A Newburgh NOT AVBL Montgomery CLOUDY 44 41 89 CALM 30.35S Poughkeepsie CLOUDY 43 41 93 CALM 30.35R Albany MOCLDY 45 43 93 CALM 30.36R $$ NJZ001-105-106-008-010-013-015-019>022-104-220800- NEW JERSEY CITY SKY/WX TMP DP RH WIND PRES REMARKS Newark/Liberty PTCLDY 57 46 66 SW5 30.35F Teterboro CLEAR 53 47 79 CALM 30.34F Caldwell CLEAR 46 46 100 CALM 30.36F Somerville CLEAR 42 42 100 NW3 30.35S Linden FAIR 53 46 75 CALM 30.35F Perth Amboy N/A 55 N/A N/A W1 N/A Sussex CLOUDY 41 41 100 CALM 30.37R Andover N/A 43 42 97 CALM 30.37R Trenton CLEAR 49 46 90 CALM 30.35S Millville FOG 47 47 100 CALM 30.35F VSB 1/4 Atlantic City FOG 46 46 100 CALM 30.35F VSB 1/4 Wrightstown CLEAR 47 45 94 CALM 30.33F Toms River N/A 43 41 93 CALM 30.37S Belmar CLEAR 53 50 89 W5 30.36F $$ PAZ047>061-062-071-220800- EASTERN PENNSYLVANIA CITY SKY/WX TMP DP RH WIND PRES REMARKS Philadelphia PTCLDY 54 48 80 CALM 30.36S Allentown CLEAR 45 41 86 CALM 30.37R Scranton CLOUDY 50 42 74 E6 30.36R $$ CTZ002-004>006-009-010-012-RIZ004-006-007-MAZ004-011-015-220800- SOUTHERN NEW ENGLAND IN CT CITY SKY/WX TMP DP RH WIND PRES REMARKS Bradley INTL PTCLDY 44 42 93 CALM 30.35S Hartford FOG 47 45 93 CALM 30.35S VSB 1/4 Danbury CLEAR 42 40 92 CALM 30.37S Wtrbury/Oxford CLEAR 50 44 80 CALM 30.36S Norwalk Harbor N/A 52 N/A N/A N5 N/A Bridgeport CLEAR 52 48 86 N3 30.35S Meriden FOG 44 43 96 CALM 30.35S VSB 1 New Haven PTCLDY 46 44 93 CALM 30.35F Chester FAIR 57 45 62 VRB3 30.35S Groton PTCLDY 48 47 96 CALM 30.34F Wilimantic CLEAR 43 41 93 CALM 30.36S IN RI CITY SKY/WX TMP DP RH WIND PRES REMARKS Providence CLEAR 51 48 89 SW6 30.34F Block Island CLEAR 56 54 93 SW7 30.35F Westerly CLEAR 47 45 93 CALM 30.35F IN MA CITY SKY/WX TMP DP RH WIND PRES REMARKS Boston PTCLDY 57 47 69 CALM 30.33S Worcester CLOUDY 58 39 49 W12 30.35S Westfield LGT RAIN 43 42 97 CALM 30.35S Provincetown PTCLDY 57 55 93 S6 30.33F Nantucket PTCLDY 59 58 96 SW8 30.35S $$ ANZ330-335-338-340-345-350-353-355-220800- COASTAL MARINE OBSERVATIONS STATION/POSITION TIME SKY/WX TEMP WIND PRES VSBY WAVE AIR SEA DIR/SP/G HT/PER (UTC) (F) (DEG/KT/KT) (MB) (MI) (FT/S) NY HARB ENTRANCE 0550 64 65 260/ 8/ 10 1027.5 1/ 9 20 S FIRE ISLAND 0550 64 64 260/ 6/ 8 1028.1 2/ 8 GREAT SOUTH BAY 0615 60 61 310/ 2/ 2 N/A 15 E BARNEGAT LI NOT AVBL HUDSON CANYON 0550 65 65 210/ 4/ 4 1027.8 2/ 9 KINGS POINT 0642 65 190/ 3/ 5 1028.2 EXECUTION ROCKS 0630 62 180/ 6/ 6 N/A WESTERN LI SOUND 0549 63 300/ 4/ 4 N/A 0 CENTRAL LI SOUND 0530 66 270/ 6/ 8 N/A 1 EASTERN LI SOUND NOT AVBL ROBBINS REEF 0648 270/ 4/ 6 1028.3 $$ >>>>>>>>>>>>>>>>>>>>>>>>>>>> KEY <<<<<<<<<<<<<<<<<<<<<<<<<<< > < > SKY/WX - Sky Condition/Present Weather < > TMP - Temperature in Fahrenheit < > DP - Dew Point in Fahrenheit < > RH - Relative Humidity in Percent < > WIND - Direction (from) and Speed in MPH < > PRES - Mean Sea Level Pressure (inches of Hg) < > WCI - Wind Chill Index < > VSB - VISIBILITY IN MILES < > HX - HEAT INDEX < > TC - TEMPERATURE IN CELSIUS < > VRB - VARIABLE WIND DIRECTION < > < >>>>>>>>>>>>>>>>>>>>>>>>>>>> KEY <<<<<<<<<<<<<<<<<<<<<<<<<<<

USA.gov is the U.S. government's official web portal to all federal, state and local government web resources and services.